Terminal Aerodrome Forecast
Issued by NWS

Home | Current Version | Previous Version | Graphics & Text | Print | Product List | Glossary On
Versions: 1 2 3 4 5 6 7 8 9 10 11 12 13 14 15 16 17 18 19
000
FTUS43 KGRB 262337
TAFMTW
TAF
KMTW 262337Z 2700/2724 17007KT P6SM BKN120
     FM270200 29008KT P6SM -SHRA BKN060
     FM270400 33005KT P6SM SCT100
     FM271500 23004KT P6SM SCT035 BKN070
      TEMPO 2716/2720 5SM -RA BR BKN030
     FM272000 07008KT 4SM -SHRA SCT008 OVC015
      TEMPO 2720/2724 2SM -RA BR BKN008=

USA.gov is the U.S. government's official web portal to all federal, state and local government web resources and services.